Weather History for Valentine, NE

Change the Weather History Date:

Thursday, October 4, 2012

  Actual Average Record
Temperature  
Mean Temperature 38 °F 53 °F  
Max Temperature 47 °F 68 °F 96 °F (1922)
Min Temperature 29 °F 39 °F 22 °F (1988)
Degree Days  
Heating Degree Days 27 12  
Month to date heating degree days 53 46  
Since 1 July heating degree days 171 231  
Cooling Degree Days 0 0  
Month to date cooling degree days 0 1  
Year to date cooling degree days 1303 818  
Growing Degree Days 0 (Base 50)    
Moisture  
Dew Point 30 °F    
Average Humidity 67    
Maximum Humidity 89    
Minimum Humidity 45    
Precipitation  
Precipitation 0.01 in 0.05 in 1.24 in (1930)
Month to date precipitation 0.11 0.22  
Year to date precipitation 9.57 17.97  
Snow  
Snow 0.00 in 0.00 in 0.00 in ()
Month to date snowfall 0.0 0.1  
Since 1 July snowfall 0.0 0.8  
Since 1 September snowfall 0.0 0.8  
Snow Depth 0.00 in    
Sea Level Pressure  
Sea Level Pressure 30.35 in    
Wind  
Wind Speed 11 mph (NW)    
Max Wind Speed 29 mph    
Max Gust Speed 37 mph    
Visibility 10 miles    
Events Rain    
T = Trace of Precipitation, MM = Missing Value Source: NWS Daily Summary

Daily Weather History Graph

Daily Weather History Graph

Search for Another Location

Airport:

Trip Planner

Search our weather history database for the weather conditions in past years. The results will help you decide how hot, cold, wet, or windy it might be!

Date:

Astronomy

Oct. 04, 2012 Rise Set
Actual Time 7:43 AM CDT 7:17 PM CDT
Civil Twilight 7:15 AM CDT 7:45 PM CDT
Nautical Twilight 6:42 AM CDT 8:18 PM CDT
Astronomical Twilight 6:09 AM CDT 8:51 PM CDT
Moon 9:47 PM CDT (10/4) 12:08 PM CDT (10/4)
Length of Visible Light 12h 30m
Length of Day
11h 33m
Waning Gibbous, 82% of the Moon is Illuminated
Oct 4
Waning Gibbous
Oct 8
Last Quarter
Oct 15
New
Oct 21
First Quarter
Oct 29
Full

Hourly Weather History & Observations

Time (CDT) Temp. Windchill Dew Point Humidity Pressure Visibility Wind Dir Wind Speed Gust Speed Precip Events Conditions
12:52 AM 39.0 °F 29.9 °F 32.0 °F 76% 30.23 in 10.0 mi NW 17.3 mph 33.4 mph N/A   Mostly Cloudy
1:52 AM 39.0 °F 27.6 °F 32.0 °F 76% 30.24 in 10.0 mi NW 27.6 mph 33.4 mph N/A   Overcast
2:52 AM 39.0 °F 29.9 °F 33.1 °F 79% 30.28 in 10.0 mi NW 17.3 mph 26.5 mph N/A   Overcast
3:52 AM 37.0 °F 28.5 °F 35.1 °F 93% 30.28 in 10.0 mi NW 13.8 mph - 0.00 in Rain Light Rain
4:52 AM 37.0 °F 28.9 °F 34.0 °F 89% 30.29 in 10.0 mi NW 12.7 mph - 0.01 in   Overcast
5:18 AM 37.4 °F 28.2 °F 33.8 °F 87% 30.27 in 10.0 mi NW 16.1 mph 21.9 mph 0.00 in   Overcast
5:52 AM 37.0 °F 27.7 °F 33.1 °F 86% 30.31 in 10.0 mi NW 16.1 mph - 0.00 in   Overcast
6:20 AM 37.4 °F 30.3 °F 33.8 °F 87% 30.29 in 10.0 mi NW 10.4 mph - N/A   Overcast
6:52 AM 36.0 °F 27.1 °F 32.0 °F 86% 30.34 in 10.0 mi NNW 13.8 mph 21.9 mph N/A   Overcast
7:40 AM 35.6 °F 28.0 °F 32.0 °F 87% 30.32 in 10.0 mi NW 10.4 mph - 0.00 in   Overcast
7:52 AM 36.0 °F 28.0 °F 32.0 °F 86% 30.37 in 10.0 mi NW 11.5 mph - 0.00 in   Overcast
8:52 AM 37.0 °F 28.5 °F 32.0 °F 82% 30.38 in 10.0 mi NW 13.8 mph 19.6 mph N/A   Overcast
9:25 AM 39.2 °F 30.2 °F 32.0 °F 75% 30.34 in 10.0 mi NW 17.3 mph 23.0 mph N/A   Overcast
9:52 AM 39.0 °F 29.3 °F 33.1 °F 79% 30.39 in 10.0 mi NW 19.6 mph 26.5 mph N/A   Mostly Cloudy
10:38 AM 39.2 °F 28.7 °F 32.0 °F 75% 30.35 in 10.0 mi NNW 23.0 mph 32.2 mph N/A   Mostly Cloudy
10:52 AM 39.9 °F 30.0 °F 30.9 °F 70% 30.40 in 10.0 mi NNW 21.9 mph 31.1 mph N/A   Mostly Cloudy
11:23 AM 42.8 °F 33.8 °F 28.4 °F 57% 30.34 in 10.0 mi NW 21.9 mph 31.1 mph N/A   Scattered Clouds
11:38 AM 42.8 °F 33.3 °F 28.4 °F 57% 30.34 in 10.0 mi NW 24.2 mph 33.4 mph N/A   Mostly Cloudy
11:47 AM 44.6 °F 35.7 °F 28.4 °F 53% 30.34 in 10.0 mi NW 24.2 mph 36.8 mph N/A   Scattered Clouds
11:52 AM 43.0 °F 33.8 °F 28.0 °F 56% 30.39 in 10.0 mi NNW 23.0 mph 35.7 mph N/A   Mostly Cloudy
12:52 PM 42.1 °F 33.3 °F 28.9 °F 60% 30.40 in 10.0 mi NNW 19.6 mph 27.6 mph N/A   Overcast
1:48 PM 44.6 °F 37.8 °F 28.4 °F 53% 30.33 in 10.0 mi NNW 15.0 mph 27.6 mph N/A   Overcast
1:52 PM 44.1 °F 37.1 °F 28.0 °F 53% 30.38 in 10.0 mi NNW 15.0 mph 25.3 mph N/A   Overcast
2:52 PM 44.1 °F 38.6 °F 28.0 °F 53% 30.38 in 10.0 mi West 10.4 mph - N/A   Overcast
3:52 PM 44.1 °F 38.6 °F 28.0 °F 53% 30.38 in 10.0 mi North 10.4 mph - N/A   Overcast
4:52 PM 45.0 °F 40.1 °F 27.0 °F 49% 30.37 in 10.0 mi NNW 9.2 mph - N/A   Overcast
5:52 PM 46.0 °F 41.9 °F 26.1 °F 46% 30.37 in 10.0 mi NNW 8.1 mph - N/A   Overcast
6:52 PM 45.0 °F 40.6 °F 25.0 °F 46% 30.37 in 10.0 mi NNW 8.1 mph - N/A   Scattered Clouds
7:52 PM 39.0 °F 36.8 °F 25.0 °F 57% 30.40 in 10.0 mi NW 3.5 mph - N/A   Clear
8:52 PM 37.0 °F - 25.0 °F 62% 30.40 in 10.0 mi Calm Calm - N/A   Clear
9:52 PM 33.8 °F 30.8 °F 24.8 °F 70% 30.35 in 10.0 mi NW 3.5 mph - N/A   Clear
10:52 PM 32.0 °F 27.5 °F 24.1 °F 73% 30.42 in 10.0 mi SSW 4.6 mph - N/A   Clear
11:52 PM 30.9 °F - 23.0 °F 72% 30.42 in 10.0 mi Calm Calm - N/A   Clear